Weather History for Marrakech, Morocco

Change the Weather History Date:

Friday, October 5, 2012

  Actual Average Record
Temperature  
Mean Temperature 76 °F -  
Max Temperature 86 °F 79 °F - ()
Min Temperature 66 °F 56 °F - ()
Cooling Degree Days 11    
Growing Degree Days 26 (Base 50)    
Moisture  
Dew Point 61 °F    
Average Humidity 62    
Maximum Humidity 90    
Minimum Humidity 31    
Precipitation  
Precipitation 0.00 in 0.04 in - ()
Sea Level Pressure  
Sea Level Pressure 30.07 in    
Wind  
Wind Speed 3 mph ()    
Max Wind Speed 9 mph    
Max Gust Speed -    
Visibility 6.2 miles    
Events      
T = Trace of Precipitation, MM = Missing Value Source: Averaged Metar Reports

Daily Weather History Graph

Daily Weather History Graph

Search for Another Location

Airport:

Trip Planner

Search our weather history database for the weather conditions in past years. The results will help you decide how hot, cold, wet, or windy it might be!

Date:

Astronomy

Oct. 05, 2012 Rise Set
Actual Time 6:28 AM WET 6:11 PM WET
Civil Twilight 6:04 AM WET 6:36 PM WET
Nautical Twilight 5:36 AM WET 7:04 PM WET
Astronomical Twilight 5:07 AM WET 7:32 PM WET
Moon 9:41 PM WET (10/5) 11:08 AM WET (10/5)
Length of Visible Light 12h 31m
Length of Day
11h 43m
Waning Gibbous, 75% of the Moon is Illuminated
Oct 5
Waning Gibbous
Oct 8
Last Quarter
Oct 15
New
Oct 22
First Quarter
Oct 29
Full

Hourly Weather History & Observations

Time (WET) Temp. Heat Index Dew Point Humidity Pressure Visibility Wind Dir Wind Speed Gust Speed Precip Events Conditions
12:00 AM 68 °F - 62 °F 77% 30.01 in 6 mi NW 4.6 mph - -   Mostly Cloudy
12:00 AM 68.0 °F - 62.6 °F 83% 30.04 in 6.2 mi NW 4.6 mph - N/A   Mostly Cloudy
2:00 AM 66.2 °F - 62.6 °F 88% 30.06 in 6.2 mi West 4.6 mph - N/A   Unknown
3:00 AM 66 °F - 64 °F 90% 30.03 in 6 mi West 6.9 mph - -   Mostly Cloudy
4:00 AM 66.2 °F - 62.6 °F 88% 30.06 in 6.2 mi West 5.8 mph - N/A   Mostly Cloudy
4:30 AM 66.2 °F - 62.6 °F 88% 30.06 in 6.2 mi West 4.6 mph - N/A   Mostly Cloudy
5:00 AM 66.2 °F - 62.6 °F 88% 30.06 in 6.2 mi West 3.5 mph - N/A   Mostly Cloudy
5:30 AM 66.2 °F - 62.6 °F 88% 30.06 in 6.2 mi WSW 3.5 mph - N/A   Mostly Cloudy
5:49 AM 66 °F - 63 °F 86% 30.03 in 6 mi Calm Calm - -   Mostly Cloudy
6:00 AM 66.2 °F - 62.6 °F 88% 30.06 in 6.2 mi Calm Calm - N/A   Mostly Cloudy
6:30 AM 66.2 °F - 62.6 °F 88% 30.06 in 6.2 mi Calm Calm - N/A   Mostly Cloudy
7:00 AM 66.2 °F - 62.6 °F 88% 30.06 in 6.2 mi Calm Calm - N/A   Overcast
7:30 AM 66.2 °F - 62.6 °F 88% 30.09 in 6.2 mi Calm Calm - N/A   Overcast
8:00 AM 68.0 °F - 62.6 °F 83% 30.09 in 6.2 mi Calm Calm - N/A   Overcast
8:30 AM 73.4 °F - 62.6 °F 69% 30.09 in 6.2 mi Calm Calm - N/A   Scattered Clouds
9:00 AM 72 °F - 62 °F 64% 30.04 in 6 mi ENE 3.5 mph - -   Partly Cloudy
9:00 AM 73.4 °F - 62.6 °F 69% 30.09 in 6.2 mi ENE 3.5 mph - N/A   Scattered Clouds
9:30 AM 75.2 °F - 62.6 °F 65% 30.09 in 6.2 mi East 5.8 mph - N/A   Scattered Clouds
10:00 AM 75.2 °F - 62.6 °F 65% 30.09 in 6.2 mi ENE 3.5 mph - N/A   Scattered Clouds
10:30 AM 73.4 °F - 62.6 °F 69% 30.09 in 6.2 mi Calm Calm - N/A   Scattered Clouds
11:00 AM 77.0 °F - 64.4 °F 65% 30.09 in 6.2 mi Variable 3.5 mph - N/A   Scattered Clouds
11:30 AM 77.0 °F - 62.6 °F 61% 30.09 in 6.2 mi ENE 4.6 mph - N/A   Scattered Clouds
12:00 PM 80 °F - 64 °F 48% 30.01 in 6 mi ESE 3.5 mph - -   Partly Cloudy
12:00 PM 80.6 °F 82.3 °F 64.4 °F 58% 30.09 in 6.2 mi Variable 2.3 mph - N/A   Scattered Clouds
12:30 PM 82.4 °F 83.4 °F 62.6 °F 51% 30.09 in 6.2 mi NE 5.8 mph - N/A   Scattered Clouds
1:00 PM 80.6 °F 81.8 °F 62.6 °F 54% 30.06 in 6.2 mi NW 3.5 mph - N/A   Scattered Clouds
1:30 PM 84.2 °F 85.0 °F 62.6 °F 48% 30.06 in 6.2 mi Calm Calm - N/A   Scattered Clouds
2:00 PM 86.0 °F 86.6 °F 62.6 °F 45% 30.06 in 6.2 mi Calm Calm - N/A   Scattered Clouds
2:30 PM 86.0 °F 86.6 °F 62.6 °F 45% 30.06 in 6.2 mi Variable 3.5 mph - N/A   Scattered Clouds
3:00 PM 87 °F - 61 °F 31% 29.96 in 6 mi NW 6.9 mph - -   Partly Cloudy
3:00 PM 87.8 °F 87.6 °F 60.8 °F 40% 30.06 in 6.2 mi NW 6.9 mph - N/A   Scattered Clouds
3:30 PM 86.0 °F 86.1 °F 60.8 °F 43% 30.06 in 6.2 mi WNW 4.6 mph - N/A   Unknown
4:00 PM 86.0 °F 86.1 °F 60.8 °F 43% 30.06 in 6.2 mi WNW 9.2 mph - N/A   Partly Cloudy
4:30 PM 86.0 °F 85.4 °F 59.0 °F 40% 30.06 in 6.2 mi WNW 4.6 mph - N/A   Partly Cloudy
5:00 PM 84.2 °F 84.4 °F 60.8 °F 45% 30.06 in 6.2 mi West 6.9 mph - N/A   Partly Cloudy
5:30 PM 84.2 °F 84.4 °F 60.8 °F 45% 30.06 in 6.2 mi West 6.9 mph - N/A   Partly Cloudy
6:00 PM 82 °F - 60 °F 36% 30.00 in 6 mi WNW 8.1 mph - -   Scattered Clouds
6:00 PM 82.4 °F 82.5 °F 59.0 °F 45% 30.06 in 6.2 mi WNW 8.1 mph - N/A   Partly Cloudy
6:30 PM 78.8 °F - 59.0 °F 51% 30.09 in 6.2 mi West 9.2 mph - N/A   Partly Cloudy
7:00 PM 78.8 °F - 59.0 °F 51% 30.09 in 6.2 mi West 6.9 mph - N/A   Partly Cloudy
7:30 PM 78.8 °F - 59.0 °F 51% 30.09 in 6.2 mi Calm Calm - N/A   Partly Cloudy
8:00 PM 77.0 °F - 59.0 °F 54% 30.12 in 6.2 mi Calm Calm - N/A   Partly Cloudy
8:30 PM 75.2 °F - 59.0 °F 57% 30.12 in 6.2 mi WSW 5.8 mph - N/A   Partly Cloudy
9:00 PM 76 °F - 60 °F 47% 30.05 in - Calm Calm - -  
9:00 PM 77.0 °F - 59.0 °F 54% 30.12 in 6.2 mi Calm Calm - N/A   Partly Cloudy
9:30 PM 75.2 °F - 59.0 °F 57% 30.12 in 6.2 mi Calm Calm - N/A   Unknown
10:00 PM 73.4 °F - 59.0 °F 61% 30.12 in 6.2 mi Calm Calm - N/A   Scattered Clouds
10:30 PM 73.4 °F - 59.0 °F 61% 30.12 in 6.2 mi Calm Calm - N/A   Scattered Clouds
11:00 PM 73.4 °F - 57.2 °F 57% 30.12 in 6.2 mi Calm Calm - N/A   Unknown
11:30 PM 71.6 °F - 59.0 °F 64% 30.12 in 6.2 mi WSW 5.8 mph - N/A   Scattered Clouds